Theta_e
326 326 326 326 326 326 328 326 327 326 326 326 324 323 321 318 314 311 317 319 319 320 320 319 318 316 310 314 308 305 304 303 303 303 302 302 302 302 302 301 301 301 300
326 327 326 325 326 326 326 326 327 326 326 325 323 322 321 318 317 312 315 319 319 319 319 318 317 314 309 309 306 304 304 303 303 303 302 302 302 302 301 302 302 303 304
325 325 327 326 326 325 324 326 326 326 324 323 323 321 320 319 318 316 311 316 319 318 319 318 318 316 308 306 304 304 304 304 304 303 303 302 302 302 303 304 304 305 306
323 323 322 324 326 324 324 326 326 325 322 322 321 321 320 319 319 317 313 311 315 317 317 318 317 311 307 305 305 305 305 305 304 304 304 304 304 305 305 306 306 307 307
324 322 321 322 324 323 326 326 326 324 321 321 320 320 320 320 319 317 314 311 311 312 310 312 310 308 306 306 306 306 307 306 306 306 306 306 306 307 307 307 307 307 307
326 325 323 324 325 322 325 324 324 323 321 320 320 320 320 320 318 317 315 310 313 311 310 308 307 307 307 307 308 308 308 308 308 308 308 308 308 308 308 308 308 308 308
327 326 325 326 325 323 324 321 321 321 320 320 320 320 320 319 318 317 315 312 312 311 310 309 308 308 309 309 310 310 310 310 310 309 310 309 309 309 309 308 309 309 309
325 327 327 326 326 324 326 320 319 321 319 319 320 320 319 318 318 317 316 313 311 311 311 309 309 310 310 310 310 310 311 311 312 312 311 311 311 311 310 310 309 310 310
326 326 326 326 327 325 326 321 319 319 319 319 320 320 318 318 318 317 316 315 313 311 312 310 310 310 310 310 310 311 312 312 313 314 315 313 313 313 312 311 311 310 310
324 323 326 326 327 325 325 324 318 317 319 319 320 320 319 319 318 318 318 318 316 314 315 314 315 315 314 314 314 315 315 315 315 315 315 316 316 316 316 315 315 314 314
321 322 323 324 326 325 325 324 318 313 313 317 318 320 320 319 318 318 318 318 319 318 318 318 318 318 317 317 317 317 317 317 317 316 316 316 316 317 317 316 316 315 315
320 322 323 322 325 323 324 324 318 312 308 316 317 319 320 319 316 314 318 317 317 317 316 315 315 316 316 316 317 317 317 317 317 316 316 316 316 316 316 316 317 317 317
322 321 322 322 323 322 323 322 318 311 312 316 316 319 319 319 313 312 315 316 316 316 315 315 315 316 314 316 316 317 317 317 317 317 317 317 317 317 317 317 316 316 316
321 321 321 322 323 323 323 322 316 311 312 315 317 318 319 315 312 313 317 315 314 315 315 314 315 316 315 316 317 317 316 316 317 317 317 317 317 317 317 317 317 317 317
321 322 321 320 321 322 322 321 316 313 312 314 314 312 315 314 312 316 315 315 315 315 315 315 316 316 317 316 318 316 316 317 317 316 316 317 317 317 316 317 317 317 317
321 321 321 321 321 321 319 317 315 313 316 317 314 314 315 314 315 316 313 314 316 316 316 315 315 317 317 318 317 316 317 317 317 316 317 317 317 317 317 317 317 316 317
320 321 321 321 321 320 318 317 316 316 317 316 317 318 317 317 316 316 317 317 316 315 316 315 315 316 317 317 316 316 316 316 316 316 316 316 316 317 317 317 317 316 316
319 320 320 321 321 321 320 319 317 317 318 319 318 317 317 316 316 315 315 314 313 314 315 316 316 317 317 317 316 317 316 316 316 316 316 315 315 316 316 317 318 316 316
320 320 319 319 320 320 320 319 319 319 318 318 318 317 317 316 315 313 313 313 313 313 314 317 318 317 317 316 316 317 317 316 316 316 316 316 315 316 316 317 318 318 316
320 320 320 319 319 319 320 320 319 318 316 316 316 316 318 316 314 313 313 313 313 314 315 315 317 317 317 317 317 317 317 316 316 316 316 316 316 316 316 317 318 318 316
318 319 320 320 320 319 318 318 318 317 317 315 315 314 315 316 315 314 314 313 313 313 314 315 315 315 315 315 315 315 316 314 314 315 315 316 316 317 317 318 318 317 317
320 320 319 319 320 320 320 319 318 317 316 315 314 314 314 314 314 314 313 313 313 313 313 313 314 315 315 315 314 314 314 314 314 313 314 316 316 316 317 316 317 317 316
323 323 323 322 322 321 320 320 320 320 319 318 317 316 316 316 315 315 314 314 313 313 313 312 313 314 315 315 315 314 314 314 314 314 315 316 316 316 316 316 315 314 313
323 323 323 323 323 323 323 323 322 321 320 320 320 319 319 319 319 319 319 319 318 318 317 316 315 314 315 315 315 314 314 314 315 316 316 315 314 313 311 309 303 302 298
321 321 323 323 323 323 323 323 323 321 320 321 321 322 321 321 321 320 319 319 319 319 319 318 316 315 315 314 314 313 314 313 314 313 312 309 307 303 300 296 294 293 292
321 322 321 321 322 322 322 322 322 321 321 320 320 320 319 318 320 320 318 316 315 315 314 314 314 313 312 311 312 314 315 311 310 306 301 298 294 294 292 290 290 290 290
Wind_Speed
24 32 35 36 36 33 41 40 40 34 28 25 22 22 17 13 14 14 21 22 20 20 20 20 19 18 17 17 16 14 12 11 10 10 10 10 9 8 8 8 7 6 5
13 19 33 42 32 32 40 42 42 36 30 26 26 23 18 13 12 14 19 23 21 20 20 19 18 17 17 16 15 13 11 10 9 9 9 8 7 7 7 6 6 5 4
10 10 25 35 39 32 42 45 40 35 30 27 28 25 17 15 12 13 17 21 22 20 19 19 18 17 17 15 13 11 10 9 9 9 8 7 7 7 7 7 7 6 4
15 17 16 16 29 36 36 42 38 34 30 31 29 23 20 18 15 15 17 18 21 21 20 18 18 18 16 14 13 11 11 10 9 8 8 8 7 8 8 7 7 6 4
22 19 21 23 28 34 34 39 36 35 35 32 28 23 20 19 17 15 16 17 19 19 18 18 17 15 13 12 12 12 11 10 9 9 8 8 9 9 8 9 7 6 5
28 25 29 26 28 33 31 36 38 38 37 33 28 23 22 21 18 16 15 16 19 17 16 16 15 14 12 12 12 11 11 10 11 10 10 11 10 10 10 10 8 8 8
32 32 29 33 30 34 33 37 40 40 37 35 31 28 25 22 21 18 17 18 19 18 17 16 15 14 14 13 13 12 11 12 12 12 12 12 13 12 13 13 11 11 13
27 35 37 32 36 37 37 40 44 42 38 36 35 34 24 22 23 21 20 20 20 19 19 17 16 15 14 16 15 14 14 14 14 14 14 14 15 15 16 17 16 17 18
25 33 36 34 36 35 38 39 43 45 44 37 37 28 16 11 24 24 23 21 22 22 20 19 19 18 18 18 18 17 17 16 16 17 18 17 17 16 18 19 20 23 23
36 29 29 34 34 34 39 42 46 45 47 45 36 34 29 22 27 14 25 24 22 22 21 20 20 20 20 20 20 20 19 19 19 19 20 21 22 21 21 21 23 25 25
29 31 33 32 34 35 37 42 44 47 47 48 44 38 29 20 27 13 18 27 26 27 23 23 23 22 23 22 22 22 21 21 22 22 23 24 26 27 27 27 28 28 29
26 27 27 32 32 30 32 37 47 46 48 49 45 43 37 28 22 18 17 20 29 23 22 27 27 27 27 25 24 23 22 24 24 24 25 26 27 28 30 32 33 33 34
16 26 28 32 33 28 36 34 45 49 48 48 45 41 37 32 25 27 34 20 19 19 22 27 30 29 28 25 24 24 25 25 25 24 26 27 28 29 30 33 35 37 39
14 16 20 22 28 33 34 41 51 56 52 45 41 37 36 30 30 38 36 25 24 20 22 28 27 27 27 23 23 21 23 22 21 24 25 26 27 28 31 33 35 37 40
14 12 12 13 17 22 28 37 46 45 51 48 47 44 41 38 40 44 31 29 26 24 28 29 30 29 28 26 24 24 27 28 28 27 26 28 29 32 34 35 37 39 41
16 15 12 15 19 22 28 34 41 45 46 48 47 45 43 46 36 40 42 42 36 29 35 32 34 34 34 36 34 28 35 34 31 38 37 33 34 36 38 40 39 40 42
15 15 19 19 20 20 27 38 41 42 43 43 45 43 43 41 43 41 42 40 41 37 38 39 37 41 36 37 39 39 40 36 37 37 39 38 41 42 43 44 40 40 42
20 18 19 22 26 25 25 28 34 39 38 43 44 46 47 43 42 41 43 44 43 42 41 43 44 43 38 40 40 41 42 41 42 41 41 45 48 47 46 44 43 41 39
22 22 23 25 27 30 31 30 32 34 37 40 45 50 48 49 45 43 43 44 43 44 45 46 48 44 47 47 45 43 44 46 47 48 49 51 49 45 45 43 44 44 40
22 22 24 25 27 30 34 37 36 33 37 39 41 41 49 50 49 50 47 48 48 47 47 48 50 52 53 54 52 51 53 51 53 53 54 49 42 42 42 43 45 45 44
20 22 24 26 27 30 34 40 42 41 40 42 42 43 45 52 54 54 54 54 52 51 53 54 54 54 55 53 57 55 56 56 56 54 56 52 45 44 42 43 45 42 45
18 19 21 25 29 31 32 33 35 37 38 42 45 46 47 49 53 54 56 58 57 57 56 56 53 50 52 57 56 56 57 53 50 47 46 51 47 48 45 45 43 44 42
17 19 21 24 26 27 29 32 34 36 39 41 45 48 50 52 53 55 56 58 59 61 62 61 58 57 54 55 56 51 49 53 57 52 49 55 55 54 51 51 46 46 45
22 19 19 19 23 27 29 29 31 35 39 41 42 43 46 48 49 49 50 53 55 56 58 59 62 63 59 54 52 53 52 53 58 57 56 51 49 45 43 37 30 27 22
23 25 24 22 23 24 30 31 28 33 35 36 38 41 46 50 49 50 52 53 53 53 55 56 56 59 60 61 61 60 63 61 56 51 43 38 36 28 23 18 16 14 16
18 21 25 29 31 33 37 37 36 35 36 38 39 41 46 49 49 49 52 54 57 54 53 56 56 57 58 57 58 59 60 53 51 38 29 24 17 17 12 11 11 13 12
Wind_Direction
242 239 222 214 208 196 188 191 195 187 188 189 191 186 188 191 177 187 181 166 171 168 162 164 163 163 165 166 170 169 164 159 156 154 154 158 154 150 147 147 148 150 144
231 246 233 212 203 211 197 194 194 192 192 194 191 187 189 177 173 181 184 172 172 172 167 169 170 170 171 179 180 172 169 169 169 170 172 168 163 166 162 165 168 164 168
181 193 203 199 207 187 192 194 196 193 192 195 190 186 189 187 179 184 190 177 175 178 174 176 176 177 179 184 181 180 180 183 187 188 182 179 180 178 179 184 179 191 192
178 162 136 182 195 187 189 196 194 192 190 189 187 189 193 193 191 191 192 189 182 181 182 187 184 186 187 186 190 190 193 195 199 199 198 194 190 195 193 195 201 207 207
196 184 176 171 191 187 194 197 195 195 188 187 188 191 197 198 198 196 197 194 190 192 192 193 194 194 194 195 198 201 202 201 203 206 206 207 207 207 208 211 208 226 226
213 209 206 204 201 196 200 198 200 194 195 191 189 193 198 198 202 202 200 205 202 198 202 206 202 200 202 205 207 210 211 208 211 216 219 221 220 222 225 223 225 238 241
220 225 226 219 210 207 206 198 199 195 191 193 187 190 193 200 205 207 209 206 209 209 209 214 212 209 209 212 215 217 221 225 225 229 233 236 236 235 241 236 240 242 245
228 223 226 228 215 209 204 202 201 194 194 191 191 185 184 199 207 211 213 212 214 215 216 213 214 214 223 227 227 228 231 236 239 247 248 249 250 249 249 250 249 253 253
222 222 226 228 224 210 209 205 205 204 200 193 200 191 170 186 199 211 214 215 218 219 219 216 218 222 228 236 236 235 238 243 248 250 255 260 259 259 257 256 257 256 257
229 217 213 223 221 217 220 215 207 204 209 200 198 203 202 196 180 198 212 213 218 222 220 225 230 232 234 238 243 244 246 251 254 257 260 261 266 267 265 263 261 260 261
222 224 221 227 226 223 220 217 204 205 210 211 205 196 199 197 201 196 206 214 217 228 225 230 235 238 241 243 248 252 256 258 260 262 263 264 266 269 272 273 270 269 268
212 207 221 229 228 229 227 216 213 205 205 212 208 203 203 200 202 219 234 231 227 232 245 240 241 242 244 247 252 259 262 263 261 264 267 267 268 269 270 273 276 277 275
202 208 216 217 226 233 241 233 215 199 202 207 208 210 212 214 218 231 237 221 224 246 259 262 247 246 250 253 258 263 267 267 269 266 266 269 271 273 275 274 274 274 274
196 200 204 219 229 229 233 229 204 203 201 204 209 208 209 223 240 226 228 230 248 243 253 252 254 255 252 254 260 266 275 271 269 264 263 266 272 278 280 279 277 274 271
207 205 206 204 208 224 233 221 214 205 199 209 214 222 227 232 229 226 238 246 249 250 250 252 257 264 263 258 259 263 266 270 273 272 264 268 273 277 277 281 281 276 273
211 215 223 214 209 212 207 196 197 199 205 214 218 222 226 230 232 233 243 240 252 257 246 256 256 261 262 264 256 258 267 270 272 263 265 267 269 276 279 281 282 280 277
223 214 217 212 209 214 214 207 206 209 216 221 220 227 231 232 233 240 240 245 250 250 251 258 260 268 260 262 266 259 268 269 274 271 272 274 279 280 280 278 279 283 281
233 230 226 225 225 226 229 224 221 224 227 225 225 226 228 229 231 238 239 247 251 253 254 258 267 269 264 270 273 271 268 270 273 274 277 280 279 278 277 275 272 279 276
236 241 239 237 235 234 231 227 228 239 245 238 234 236 231 230 236 244 246 251 256 258 258 262 265 266 266 271 273 274 274 275 275 277 282 287 282 277 274 274 272 277 271
242 244 246 244 242 240 237 233 240 252 249 243 241 244 236 238 241 244 253 257 260 263 262 262 266 268 271 275 273 275 277 280 280 282 284 284 277 275 272 269 271 272 268
248 250 252 252 250 247 244 245 249 254 251 247 246 246 246 244 244 250 254 257 261 263 264 266 267 267 269 268 271 278 277 281 282 284 287 281 280 280 272 271 272 271 269
255 258 259 259 257 257 256 255 255 255 253 251 251 254 256 256 256 257 258 259 263 265 265 265 264 260 261 268 273 274 278 276 274 284 285 285 285 284 285 284 273 273 266
259 262 265 266 266 268 267 266 265 263 261 259 259 259 259 260 262 263 263 264 264 264 265 267 263 262 261 265 272 269 267 271 274 279 275 274 276 276 277 278 266 265 261
265 269 276 281 281 281 279 277 273 264 259 260 263 266 267 268 269 270 271 270 268 267 267 267 265 263 259 259 256 261 265 268 271 269 264 258 258 258 260 260 263 260 255
257 266 273 280 290 293 287 283 282 275 270 268 267 267 268 267 269 268 268 269 269 270 272 270 269 266 266 266 266 266 264 262 259 260 260 257 253 247 241 231 217 216 221
261 260 257 258 261 262 265 266 266 265 266 270 273 270 267 269 276 273 269 268 269 269 265 265 262 262 262 261 263 264 266 265 259 254 250 235 227 203 178 188 200 205 216